Dewpoint
68 71 73 71 71 71 71 71 71 71 72 71 71 71 70 69 67 66 65 65 65 65 65 68 69 68 67 68 68 67 65 63 61 63 64 65 64 64 66 65 64 65 63
70 71 73 71 70 70 70 70 72 72 72 71 71 71 69 68 67 65 64 64 64 64 65 68 68 68 68 67 65 63 61 60 62 63 62 64 65 64 64 64 64 61 60
70 71 71 72 71 70 69 69 71 71 71 71 70 69 68 67 66 64 64 63 63 63 67 67 66 66 65 65 64 63 61 62 63 63 62 59 59 61 63 63 62 61 61
70 71 70 72 70 69 68 68 69 70 70 71 70 69 68 66 63 62 63 63 64 64 65 65 65 64 64 65 64 63 64 64 64 64 59 59 58 60 59 60 61 63 63
70 70 70 72 70 68 67 68 69 69 70 70 70 68 66 64 63 63 63 63 63 63 64 64 64 64 64 64 64 63 64 66 64 61 57 58 60 62 63 63 62 61 61
70 70 71 72 70 69 69 69 68 69 70 70 70 68 65 64 63 63 63 64 65 65 65 65 65 66 66 66 65 65 65 64 61 59 57 59 62 63 63 63 61 62 63
69 70 70 72 70 69 71 70 68 67 68 68 68 67 66 66 64 64 64 65 65 65 67 66 66 67 67 66 65 63 62 60 60 59 62 62 62 62 62 60 62 65 66
69 70 70 71 71 70 71 70 69 68 68 68 69 68 67 66 66 65 65 65 65 66 67 66 67 67 66 63 59 57 58 58 59 59 58 56 60 58 60 62 62 62 63
69 70 70 70 70 70 69 70 69 69 68 69 69 69 68 68 68 66 66 66 65 67 67 68 67 66 62 54 54 56 58 58 54 53 53 54 60 55 57 58 59 60 64
68 69 69 69 70 69 68 69 69 68 69 69 69 69 68 68 68 68 68 68 66 67 67 66 65 62 57 54 54 52 54 56 52 53 53 53 55 54 61 62 64 65 65
67 68 68 69 69 69 68 67 68 69 68 68 68 67 66 66 67 67 67 67 68 67 66 65 61 58 56 54 52 48 43 48 50 52 54 60 59 62 64 64 64 64 63
66 67 68 68 68 68 68 67 66 66 66 66 66 64 63 65 66 66 66 67 68 67 65 60 56 51 40 31 31 38 34 47 52 54 55 64 61 63 62 62 61 60 60
66 67 68 68 68 68 67 67 66 65 64 65 65 63 61 64 64 65 64 65 64 63 58 50 37 31 26 27 26 28 35 49 52 55 60 62 59 59 58 57 58 57 56
66 67 67 68 68 67 67 66 66 64 63 63 64 63 61 61 62 62 63 62 61 58 53 42 30 26 24 22 22 24 33 47 51 53 57 60 59 57 56 54 53 51 51
66 66 67 67 67 67 66 66 65 64 64 64 63 63 61 60 61 61 61 61 59 52 39 31 28 26 24 23 22 24 32 45 48 51 53 56 55 52 51 49 48 48 49
62 66 67 67 67 67 66 66 65 64 63 63 63 63 61 60 60 60 60 59 54 41 31 28 27 27 26 24 21 22 28 42 45 47 46 48 52 48 46 45 45 45 46
49 60 66 67 67 67 66 66 65 64 63 62 61 62 61 59 59 59 58 52 40 31 28 28 28 26 25 22 20 22 24 36 40 43 41 42 44 49 44 44 43 43 45
42 48 62 67 67 67 66 65 65 64 63 63 61 61 59 58 59 55 51 41 33 29 29 30 28 25 24 22 20 21 27 28 38 39 38 37 37 34 40 39 38 39 39
41 42 57 63 67 67 66 66 65 64 64 63 62 61 58 58 54 51 45 37 31 30 31 29 28 24 20 22 22 29 31 28 33 35 32 31 32 30 33 37 37 36 36
39 41 53 61 64 66 66 66 65 64 64 63 62 60 57 55 49 45 38 33 32 32 31 29 25 25 23 24 26 27 31 28 28 28 28 26 25 22 23 23 25 29 35
37 38 42 60 63 65 65 65 64 63 62 62 62 59 57 54 46 41 36 32 32 31 30 27 25 21 23 25 27 27 27 27 29 24 25 23 22 22 23 24 24 24 23
35 36 37 48 61 64 65 65 63 64 63 62 61 58 56 52 46 41 36 32 32 32 28 27 27 26 24 23 24 27 23 24 23 24 22 22 21 24 23 23 21 21 22
33 34 36 38 53 63 64 63 58 58 56 56 55 53 54 51 45 42 37 34 32 32 30 29 28 26 24 23 23 25 23 21 22 23 22 22 22 22 22 24 22 21 20
30 31 33 37 41 59 64 62 60 60 59 60 57 56 50 51 47 40 37 33 32 35 32 29 28 28 26 23 25 21 21 23 16 15 21 23 23 20 21 22 22 20 22
30 30 31 34 41 50 63 63 62 59 60 57 53 53 51 48 46 43 36 34 35 35 33 27 26 27 26 27 25 24 22 24 21 18 15 19 22 22 23 22 21 20 21
30 31 32 32 36 48 61 63 62 60 53 53 52 52 49 46 44 42 39 37 35 35 33 29 27 26 26 26 26 25 24 22 22 21 20 19 20 21 22 22 20 20 22
Lifted_Index
-2 -3 -3 -2 -1 -1 -1 -1 -1 -1 -1 -1 -0 0 1 2 3 4 5 5 5 5 4 3 3 3 3 3 3 4 5 6 6 5 4 4 3 3 2 2 2 2 3
-3 -3 -3 -2 -2 -1 -1 -1 -1 -1 -1 -1 -0 0 1 2 3 4 5 5 5 5 4 3 3 3 3 3 4 5 5 6 5 5 5 4 4 3 2 2 2 3 3
-4 -4 -3 -3 -2 -1 -1 -0 -1 -1 -1 -1 -0 0 1 3 4 5 5 5 5 5 4 4 3 3 4 4 4 5 5 5 4 4 5 5 4 3 3 3 2 3 3
-4 -4 -3 -3 -2 -1 -0 0 -0 -1 -1 -1 -0 1 2 3 4 5 5 5 5 5 4 4 4 4 4 4 4 4 4 3 3 4 5 5 4 3 3 3 2 2 2
-4 -4 -3 -3 -2 -1 -0 -0 -0 -1 -1 -1 -0 1 2 4 5 5 5 5 4 4 4 4 4 3 3 3 3 3 2 2 3 4 4 4 3 2 2 2 2 2 2
-4 -4 -4 -3 -2 -1 -1 -1 -1 -1 -1 -1 -1 1 2 3 4 4 4 4 3 3 3 3 3 2 2 2 2 2 2 2 3 3 3 2 2 1 1 1 1 1 1
-4 -4 -4 -4 -3 -2 -2 -2 -1 -1 -1 -1 -1 0 1 2 3 3 3 3 2 2 1 1 1 1 1 1 2 3 3 3 2 2 2 2 2 1 1 1 1 1 0
-4 -4 -4 -4 -4 -3 -3 -2 -1 -1 -1 -1 -1 -1 0 1 1 2 2 2 1 1 0 -0 -0 0 1 3 4 5 4 4 3 3 3 3 3 3 2 2 2 1 1
-4 -4 -5 -4 -4 -4 -3 -3 -2 -1 -1 -2 -2 -2 -1 -1 -0 0 1 1 1 -0 -1 -1 -0 1 3 5 7 7 6 5 5 5 5 5 5 4 3 2 2 1 1
-4 -4 -4 -4 -4 -4 -3 -3 -2 -2 -2 -2 -2 -2 -2 -1 -1 -1 -0 -0 -0 -1 -1 -0 1 2 4 6 7 8 8 8 8 7 7 6 5 3 2 1 1 1 1
-4 -4 -4 -4 -4 -4 -3 -3 -2 -2 -2 -2 -2 -2 -1 -2 -2 -2 -1 -1 -1 -1 -0 1 2 4 5 6 7 9 10 10 9 8 7 5 3 2 1 1 1 1 2
-4 -4 -4 -4 -4 -4 -3 -3 -2 -2 -2 -2 -2 -1 -1 -2 -2 -2 -2 -2 -2 -1 1 2 4 4 5 6 8 10 11 11 9 7 5 3 2 2 2 2 3 3 4
-4 -4 -4 -4 -4 -4 -3 -3 -2 -2 -2 -2 -2 -1 -1 -1 -2 -2 -2 -2 -1 -0 2 3 4 4 5 7 9 11 12 11 9 7 5 4 3 4 4 5 5 6 6
-4 -4 -4 -4 -4 -4 -4 -3 -3 -2 -2 -1 -1 -1 -1 -1 -2 -2 -2 -1 -0 1 2 4 4 4 5 8 10 11 12 11 9 7 6 5 5 6 6 7 8 8 8
-4 -5 -5 -5 -4 -4 -4 -4 -4 -3 -2 -2 -1 -1 -1 -1 -1 -1 -1 -0 0 1 3 3 4 4 5 8 10 12 12 12 10 9 8 8 8 8 9 9 10 10 10
-4 -4 -5 -5 -4 -4 -4 -4 -4 -4 -3 -2 -2 -2 -1 -1 -0 -1 -0 0 1 1 2 3 3 4 6 8 10 11 13 13 12 11 10 10 10 11 11 11 12 12 11
-1 -2 -3 -4 -4 -4 -4 -4 -4 -4 -3 -3 -3 -2 -1 -1 -0 -0 -0 0 1 1 2 3 3 4 6 9 10 11 13 13 13 13 13 13 13 13 13 13 13 13 13
3 2 -0 -2 -3 -4 -4 -4 -4 -4 -4 -4 -3 -2 -1 -1 -1 -1 -0 0 0 1 1 2 2 4 6 8 9 11 13 14 14 14 14 14 14 14 14 15 15 15 15
5 5 3 -0 -2 -3 -4 -4 -4 -4 -4 -4 -3 -3 -2 -2 -2 -1 -0 -0 -0 0 1 1 2 4 7 8 9 11 13 14 14 14 14 14 15 15 15 16 16 16 16
6 6 4 1 -1 -3 -3 -3 -3 -3 -4 -4 -3 -3 -3 -2 -2 -2 -1 -1 -1 -0 -0 1 2 4 7 8 8 10 12 13 14 14 14 14 14 15 16 16 17 17 17
7 6 5 3 -0 -2 -3 -3 -3 -3 -3 -3 -3 -3 -3 -2 -2 -2 -2 -1 -1 -1 -0 0 2 5 7 7 7 8 10 11 12 13 13 13 14 15 16 16 17 17 17
6 6 5 4 1 -1 -2 -2 -2 -2 -3 -3 -3 -3 -3 -2 -2 -2 -2 -1 -1 -1 -1 0 2 5 7 7 6 6 7 8 10 11 13 13 14 15 16 16 17 17 18
6 6 6 5 3 1 -2 -2 -2 -2 -2 -2 -3 -3 -3 -3 -2 -2 -2 -1 -1 -1 -1 0 2 5 7 7 6 6 6 6 7 9 11 12 14 15 16 17 17 18 18
6 6 6 6 5 2 -1 -2 -2 -2 -2 -2 -2 -3 -3 -3 -2 -2 -2 -1 -1 -1 -1 0 3 5 7 7 6 6 6 6 6 6 8 10 13 15 16 17 17 18 18
7 7 7 7 7 4 0 -2 -2 -2 -2 -2 -2 -2 -3 -2 -2 -2 -2 -2 -1 -1 -1 0 3 5 7 7 6 6 6 6 6 5 6 8 11 14 16 17 17 18 19
8 8 8 8 8 5 1 -2 -2 -2 -1 -2 -2 -2 -2 -2 -2 -2 -2 -2 -1 -1 -1 0 3 6 6 7 6 6 6 6 5 5 5 6 9 12 15 17 18 18 19